WAT5617 LFBH-BIKF

Flight info

Callsign WAT5617
Flight time 2h 49m
Altitude 40000
Route LUSON DCT TIRAV UN490 TERPO UM616 KORER DCT LIZAD DCT PAVLO/N0496F430 DCT ABAGU DCT REVNU DCT RUXIN DCT 59N015W DCT VM DCT ASRUN ASRUN4N
Aircraft C750/M-SBDE3FGHRWXY/S

Departure

Time 2026-05-05 22:35
Airport La Rochelle Île de Ré Airport (LFBH)

Arrival

Time 2026-05-06 01:25
Airport Keflavik International Airport (BIKF)
Time Latitude Longitude Altitude Speed Heading
2026-05-05 22:23 46.17649 -1.19218 77 ft 0 kts 302°
2026-05-05 22:30 46.17650 -1.19221 69 ft 1 kts 302°
2026-05-05 22:30 46.17653 -1.19227 70 ft 2 kts 304°
2026-05-05 22:31 46.17669 -1.19259 76 ft 6 kts 308°
2026-05-05 22:31 46.17687 -1.19336 76 ft 11 kts 271°
2026-05-05 22:31 46.17691 -1.19467 75 ft 14 kts 275°
2026-05-05 22:31 46.17748 -1.19529 74 ft 11 kts
2026-05-05 22:32 46.17836 -1.19523 74 ft 14 kts
2026-05-05 22:32 46.17920 -1.19492 75 ft 12 kts 80°
2026-05-05 22:32 46.17917 -1.19361 74 ft 15 kts 92°
2026-05-05 22:32 46.17912 -1.19189 71 ft 19 kts 94°
2026-05-05 22:33 46.17902 -1.18991 76 ft 21 kts 94°
2026-05-05 22:33 46.17896 -1.18776 77 ft 21 kts 93°
2026-05-05 22:33 46.17891 -1.18652 81 ft 17 kts 93°
2026-05-05 22:33 46.17880 -1.18495 87 ft 8 kts 105°
2026-05-05 22:34 46.17872 -1.18420 84 ft 8 kts 94°
2026-05-05 22:34 46.17871 -1.18362 86 ft 9 kts 90°
2026-05-05 22:34 46.17885 -1.18355 88 ft 4 kts 289°
2026-05-05 22:34 46.17890 -1.18528 83 ft 50 kts 272°
2026-05-05 22:35 46.17918 -1.19496 87 ft 132 kts 272°
2026-05-05 22:35 46.17959 -1.20947 370 ft 152 kts 272°
2026-05-05 22:35 46.18118 -1.22518 784 ft 167 kts 289°
2026-05-05 22:35 46.18573 -1.24073 1455 ft 168 kts 293°
2026-05-05 22:36 46.19091 -1.25586 2075 ft 173 kts 308°
2026-05-05 22:36 46.20094 -1.26672 2440 ft 191 kts 335°
2026-05-05 22:36 46.21442 -1.27124 2869 ft 207 kts 348°
2026-05-05 22:36 46.22933 -1.27494 3211 ft 227 kts 348°
2026-05-05 22:37 46.24555 -1.27948 3579 ft 247 kts 347°
2026-05-05 22:37 46.26278 -1.28439 4331 ft 255 kts 347°
2026-05-05 22:37 46.28008 -1.28919 5228 ft 258 kts 347°
2026-05-05 22:37 46.29786 -1.29413 6088 ft 262 kts 347°
2026-05-05 22:38 46.31593 -1.29918 6925 ft 266 kts 348°
2026-05-05 22:38 46.33426 -1.30432 7814 ft 270 kts 347°
2026-05-05 22:38 46.35287 -1.30953 8737 ft 274 kts 348°
2026-05-05 22:38 46.37178 -1.31482 9613 ft 278 kts 347°
2026-05-05 22:39 46.39100 -1.32021 10279 ft 287 kts 348°
2026-05-05 22:39 46.41120 -1.32590 10478 ft 309 kts 348°
2026-05-05 22:39 46.43243 -1.33184 11233 ft 308 kts 348°
2026-05-05 22:39 46.45369 -1.33779 11774 ft 313 kts 348°
2026-05-05 22:40 46.47500 -1.34379 12350 ft 317 kts 348°
2026-05-05 22:40 46.49682 -1.34997 13079 ft 320 kts 348°
2026-05-05 22:40 46.51849 -1.35857 13693 ft 324 kts 343°
2026-05-05 22:40 46.54038 -1.36740 14331 ft 327 kts 345°
2026-05-05 22:41 46.56252 -1.37601 14967 ft 330 kts 345°
2026-05-05 22:41 46.58480 -1.38500 15605 ft 333 kts 344°
2026-05-05 22:41 46.60684 -1.39600 16160 ft 337 kts 335°
2026-05-05 22:41 46.62775 -1.41097 16829 ft 339 kts 333°
2026-05-05 22:42 46.64896 -1.42646 17504 ft 343 kts 334°
2026-05-05 22:42 46.67063 -1.44171 18168 ft 347 kts 334°
2026-05-05 22:42 46.69252 -1.45698 18808 ft 349 kts 335°
2026-05-05 22:42 46.71442 -1.47254 19477 ft 350 kts 335°
2026-05-05 22:43 46.73609 -1.48803 20111 ft 353 kts 335°
2026-05-05 22:43 46.75830 -1.50381 20754 ft 355 kts 335°
2026-05-05 22:43 46.78066 -1.51967 21410 ft 358 kts 336°
2026-05-05 22:43 46.80316 -1.53568 21962 ft 360 kts 336°
2026-05-05 22:44 46.82559 -1.55167 22451 ft 362 kts 336°
2026-05-05 22:44 46.84831 -1.56789 23020 ft 365 kts 337°
2026-05-05 22:44 46.87133 -1.58432 23663 ft 366 kts 337°
2026-05-05 22:44 46.89434 -1.60075 24142 ft 371 kts 337°
2026-05-05 22:45 46.91766 -1.61743 24625 ft 374 kts 337°
2026-05-05 22:45 46.94121 -1.63429 25119 ft 378 kts 337°
2026-05-05 22:45 46.96463 -1.65107 25540 ft 382 kts 335°
2026-05-05 22:45 46.98904 -1.66857 25613 ft 399 kts 335°
2026-05-05 22:46 47.01440 -1.68680 25940 ft 406 kts 335°
2026-05-05 22:46 47.03984 -1.70512 26507 ft 408 kts 334°
2026-05-05 22:46 47.06557 -1.72362 26952 ft 413 kts 334°
2026-05-05 22:46 47.09120 -1.74208 27458 ft 417 kts 334°
2026-05-05 22:47 47.11741 -1.76099 27948 ft 421 kts 334°
2026-05-05 22:47 47.14383 -1.78007 28443 ft 425 kts 334°
2026-05-05 22:47 47.17046 -1.79932 28930 ft 429 kts 334°
2026-05-05 22:47 47.19752 -1.81890 29418 ft 433 kts 334°
2026-05-05 22:48 47.22476 -1.83863 29911 ft 437 kts 334°
2026-05-05 22:48 47.25217 -1.85852 30315 ft 441 kts 334°
2026-05-05 22:48 47.27946 -1.87835 30762 ft 444 kts 334°
2026-05-05 22:48 47.30743 -1.89867 31196 ft 447 kts 334°
2026-05-05 22:49 47.33497 -1.92042 31569 ft 451 kts 327°
2026-05-05 22:49 47.35984 -1.94924 31991 ft 453 kts 316°
2026-05-05 22:49 47.38106 -1.98295 32433 ft 454 kts 310°
2026-05-05 22:49 47.40187 -2.01838 32869 ft 457 kts 310°
2026-05-05 22:50 47.42294 -2.05391 33295 ft 460 kts 310°
2026-05-05 22:50 47.44409 -2.08951 33723 ft 463 kts 310°
2026-05-05 22:50 47.46535 -2.12558 34113 ft 466 kts 309°
2026-05-05 22:50 47.48641 -2.16144 34487 ft 468 kts 309°
2026-05-05 22:51 47.50772 -2.19765 35065 ft 464 kts 310°
2026-05-05 22:51 47.52895 -2.23371 35586 ft 463 kts 310°
2026-05-05 22:51 47.55012 -2.26979 36072 ft 463 kts 309°
2026-05-05 22:51 47.57098 -2.30541 36565 ft 462 kts 310°
2026-05-05 22:52 47.59203 -2.34137 37060 ft 461 kts 310°
2026-05-05 22:52 47.61303 -2.37728 37549 ft 460 kts 310°
2026-05-05 22:52 47.63401 -2.41322 38036 ft 459 kts 310°
2026-05-05 22:52 47.65495 -2.44917 38539 ft 459 kts 310°
2026-05-05 22:53 47.67577 -2.48425 38914 ft 458 kts 313°
2026-05-05 22:53 47.69973 -2.51572 39248 ft 460 kts 323°
2026-05-05 22:53 47.72657 -2.54166 39628 ft 459 kts 329°
2026-05-05 22:53 47.75451 -2.56498 39963 ft 460 kts 330°
2026-05-05 22:54 47.78257 -2.58903 39938 ft 470 kts 328°
2026-05-05 22:54 47.83824 -2.64287 39950 ft 488 kts 327°
2026-05-05 22:55 47.89753 -2.69627 39955 ft 505 kts 328°
2026-05-05 22:55 47.95765 -2.75291 39958 ft 514 kts 327°
2026-05-05 22:56 48.01888 -2.80945 39960 ft 518 kts 328°
2026-05-05 22:56 48.07975 -2.86645 39964 ft 518 kts 327°
2026-05-05 22:57 48.14095 -2.92367 39962 ft 517 kts 328°
2026-05-05 22:57 48.20149 -2.98049 39961 ft 516 kts 327°
2026-05-05 22:58 48.26247 -3.03792 39964 ft 515 kts 328°
2026-05-05 22:58 48.32318 -3.09520 39963 ft 515 kts 327°
2026-05-05 22:59 48.38348 -3.15230 39967 ft 514 kts 327°
2026-05-05 22:59 48.44404 -3.20977 39966 ft 514 kts 327°
2026-05-05 23:00 48.53458 -3.29604 39968 ft 514 kts 327°
2026-05-05 23:00 48.59512 -3.35393 39970 ft 514 kts 327°
2026-05-05 23:01 48.65549 -3.41182 39970 ft 513 kts 327°
2026-05-05 23:01 48.71550 -3.46952 39966 ft 513 kts 327°
2026-05-05 23:02 48.77577 -3.52765 39972 ft 513 kts 327°
2026-05-05 23:02 48.83618 -3.58608 39970 ft 513 kts 327°
2026-05-05 23:03 48.89650 -3.64459 39969 ft 513 kts 327°
2026-05-05 23:03 48.95642 -3.70288 39974 ft 513 kts 327°
2026-05-05 23:04 49.01661 -3.76161 39981 ft 513 kts 327°
2026-05-05 23:04 49.07674 -3.82044 39990 ft 513 kts 327°
2026-05-05 23:05 49.13659 -3.87918 39996 ft 513 kts 327°
2026-05-05 23:05 49.19670 -3.93834 39996 ft 513 kts 327°
2026-05-05 23:06 49.25635 -3.99722 40006 ft 512 kts 327°
2026-05-05 23:06 49.31628 -4.05656 40007 ft 512 kts 327°
2026-05-05 23:07 49.37625 -4.11610 39999 ft 512 kts 327°
2026-05-05 23:07 49.43567 -4.17527 40004 ft 511 kts 327°
2026-05-05 23:08 49.49541 -4.23494 40009 ft 511 kts 327°
2026-05-05 23:08 49.55477 -4.29441 40010 ft 510 kts 327°
2026-05-05 23:09 49.61368 -4.35595 40005 ft 510 kts 324°
2026-05-05 23:09 49.67050 -4.42063 40008 ft 510 kts 324°
2026-05-05 23:10 49.72795 -4.48511 40017 ft 510 kts 324°
2026-05-05 23:10 49.78519 -4.55023 40019 ft 509 kts 324°
2026-05-05 23:11 49.84212 -4.61480 40020 ft 509 kts 324°
2026-05-05 23:11 49.89937 -4.68015 40020 ft 509 kts 324°
2026-05-05 23:12 49.95651 -4.74545 40027 ft 509 kts 324°
2026-05-05 23:12 50.01316 -4.81044 40027 ft 509 kts 324°
2026-05-05 23:13 50.07023 -4.87609 40032 ft 509 kts 324°
2026-05-05 23:13 50.12683 -4.94140 40029 ft 509 kts 323°
2026-05-05 23:14 50.18372 -5.00725 40032 ft 508 kts 323°
2026-05-05 23:14 50.24068 -5.07337 40031 ft 508 kts 323°
2026-05-05 23:15 50.29716 -5.13913 40031 ft 508 kts 323°
2026-05-05 23:15 50.35383 -5.20532 40027 ft 507 kts 323°
2026-05-05 23:16 50.41015 -5.27130 40032 ft 507 kts 323°
2026-05-05 23:16 50.46670 -5.33776 40032 ft 506 kts 323°
2026-05-05 23:17 50.51352 -5.39293 40032 ft 506 kts 323°
2026-05-05 23:17 50.56986 -5.45951 40034 ft 506 kts 323°
2026-05-05 23:18 50.62616 -5.52624 40045 ft 505 kts 323°
2026-05-05 23:18 50.68201 -5.59264 40046 ft 504 kts 323°
2026-05-05 23:19 50.73822 -5.65969 40044 ft 504 kts 323°
2026-05-05 23:19 50.79384 -5.72622 40048 ft 504 kts 323°
2026-05-05 23:20 50.84975 -5.79331 40054 ft 504 kts 323°
2026-05-05 23:20 50.90544 -5.86034 40057 ft 504 kts 323°
2026-05-05 23:21 50.96205 -5.92539 40053 ft 504 kts 326°
2026-05-05 23:21 51.02048 -5.98728 40059 ft 504 kts 326°
2026-05-05 23:22 51.07818 -6.04987 40062 ft 504 kts 326°
2026-05-05 23:22 51.13642 -6.11243 40067 ft 504 kts 326°
2026-05-05 23:23 51.19443 -6.17541 40128 ft 504 kts 324°
2026-05-05 23:23 51.25237 -6.23826 40070 ft 505 kts 324°
2026-05-05 23:24 51.31020 -6.30129 40072 ft 504 kts 324°
2026-05-05 23:24 51.36816 -6.36462 40068 ft 503 kts 324°
2026-05-05 23:25 51.42564 -6.42764 40070 ft 502 kts 324°
2026-05-05 23:25 51.48343 -6.49118 40069 ft 502 kts 324°
2026-05-05 23:26 51.54101 -6.55470 40072 ft 502 kts 324°
2026-05-05 23:26 51.59832 -6.61811 40077 ft 502 kts 324°
2026-05-05 23:27 51.65591 -6.68204 40077 ft 502 kts 324°
2026-05-05 23:27 51.71349 -6.74615 40074 ft 502 kts 324°
2026-05-05 23:28 51.77076 -6.81012 40074 ft 502 kts 324°
2026-05-05 23:28 51.82837 -6.87468 40075 ft 502 kts 324°
2026-05-05 23:29 51.88542 -6.93882 40081 ft 502 kts 324°
2026-05-05 23:29 51.94265 -7.00333 40470 ft 495 kts 324°
2026-05-05 23:30 51.97080 -7.03515 40823 ft 490 kts 324°
2026-05-05 23:30 51.99858 -7.06661 41176 ft 485 kts 324°
2026-05-05 23:30 52.02623 -7.09797 41521 ft 481 kts 323°
2026-05-05 23:30 52.05356 -7.12900 41872 ft 478 kts 323°
2026-05-05 23:31 52.08047 -7.15959 42224 ft 474 kts 323°
2026-05-05 23:31 52.10740 -7.19027 42587 ft 471 kts 323°
2026-05-05 23:31 52.13431 -7.22097 42944 ft 469 kts 323°
2026-05-05 23:31 52.16071 -7.25114 43065 ft 474 kts 323°
2026-05-05 23:32 52.21576 -7.31417 43076 ft 488 kts 323°
2026-05-05 23:32 52.27155 -7.37824 43085 ft 497 kts 323°
2026-05-05 23:33 52.32844 -7.44380 43088 ft 501 kts 323°
2026-05-05 23:33 52.38570 -7.50997 43086 ft 504 kts 323°
2026-05-05 23:34 52.44303 -7.57646 43082 ft 505 kts 323°
2026-05-05 23:34 52.50005 -7.64279 43088 ft 504 kts 323°
2026-05-05 23:35 52.55690 -7.71015 43082 ft 503 kts 322°
2026-05-05 23:35 52.61351 -7.77784 43083 ft 501 kts 323°
2026-05-05 23:36 52.66996 -7.84513 43084 ft 499 kts 323°
2026-05-05 23:36 52.72581 -7.91228 43073 ft 497 kts 323°
2026-05-05 23:37 52.78147 -7.97917 43083 ft 495 kts 323°
2026-05-05 23:37 52.83715 -8.04645 43086 ft 494 kts 323°
2026-05-05 23:38 52.89272 -8.11372 43078 ft 493 kts 323°
2026-05-05 23:38 52.94770 -8.18055 43082 ft 492 kts 323°
2026-05-05 23:39 53.00294 -8.24789 43089 ft 491 kts 322°
2026-05-05 23:39 53.05802 -8.31526 43100 ft 491 kts 322°
2026-05-05 23:40 53.11278 -8.38246 43104 ft 492 kts 322°
2026-05-05 23:40 53.16798 -8.45042 43111 ft 493 kts 322°
2026-05-05 23:41 53.22285 -8.51818 43099 ft 494 kts 322°
2026-05-05 23:41 53.27840 -8.58702 43107 ft 495 kts 322°
2026-05-05 23:42 53.33351 -8.65553 43106 ft 496 kts 322°
2026-05-05 23:42 53.38908 -8.72485 43110 ft 497 kts 322°
2026-05-05 23:43 53.44427 -8.79392 43113 ft 497 kts 322°
2026-05-05 23:43 53.49990 -8.86377 43119 ft 497 kts 322°
2026-05-05 23:44 53.55509 -8.93332 43120 ft 497 kts 322°
2026-05-05 23:44 53.61050 -9.00336 43118 ft 497 kts 322°
2026-05-05 23:45 53.66544 -9.07305 43122 ft 497 kts 322°
2026-05-05 23:45 53.72069 -9.14335 43125 ft 496 kts 322°
2026-05-05 23:46 53.77593 -9.21389 43131 ft 496 kts 322°
2026-05-05 23:46 53.83059 -9.28393 43133 ft 496 kts 322°
2026-05-05 23:47 53.88566 -9.35472 43134 ft 495 kts 322°
2026-05-05 23:47 53.94024 -9.42513 43129 ft 495 kts 322°
2026-05-05 23:48 53.99512 -9.49616 43137 ft 495 kts 322°
2026-05-05 23:48 54.04989 -9.56729 43133 ft 495 kts 321°
2026-05-05 23:49 54.10428 -9.63817 43135 ft 495 kts 321°
2026-05-05 23:49 54.15898 -9.70969 43137 ft 494 kts 321°
2026-05-05 23:50 54.21364 -9.78141 43139 ft 494 kts 321°
2026-05-05 23:50 54.26789 -9.85283 43140 ft 494 kts 321°
2026-05-05 23:51 54.32250 -9.92497 43138 ft 494 kts 321°
2026-05-05 23:51 54.37657 -9.99665 43134 ft 494 kts 321°
2026-05-05 23:52 54.43112 -10.06921 43140 ft 494 kts 321°
2026-05-05 23:52 54.48676 -10.13717 43132 ft 494 kts 328°
2026-05-05 23:53 54.54676 -10.19513 43145 ft 493 kts 329°
2026-05-05 23:53 54.60614 -10.25457 43145 ft 492 kts 328°
2026-05-05 23:54 54.66544 -10.31310 43148 ft 493 kts 329°
2026-05-05 23:54 54.72501 -10.37261 43153 ft 493 kts 328°
2026-05-05 23:55 54.78416 -10.43168 43150 ft 494 kts 329°
2026-05-05 23:55 54.84370 -10.49142 43148 ft 494 kts 328°
2026-05-05 23:56 54.90321 -10.55133 43151 ft 494 kts 328°
2026-05-05 23:56 54.96246 -10.61117 43150 ft 494 kts 328°
2026-05-05 23:57 55.02205 -10.67157 43155 ft 494 kts 328°
2026-05-05 23:57 55.08146 -10.73200 43153 ft 494 kts 328°
2026-05-05 23:58 55.14063 -10.79238 43155 ft 493 kts 328°
2026-05-05 23:58 55.19989 -10.85307 43152 ft 493 kts 328°
2026-05-05 23:59 55.25892 -10.91374 43149 ft 493 kts 328°
2026-05-05 23:59 55.31775 -10.97442 43154 ft 492 kts 328°
2026-05-06 00:00 55.37684 -11.03557 43153 ft 490 kts 328°
2026-05-06 00:00 55.43514 -11.09612 43152 ft 489 kts 328°
2026-05-06 00:01 55.49375 -11.15719 43154 ft 489 kts 328°
2026-05-06 00:01 55.55202 -11.21813 43161 ft 489 kts 328°
2026-05-06 00:02 55.61058 -11.27959 43159 ft 489 kts 328°
2026-05-06 00:02 55.66925 -11.34138 43160 ft 489 kts 328°
2026-05-06 00:03 55.72756 -11.40300 43160 ft 490 kts 328°
2026-05-06 00:03 55.78618 -11.46518 43161 ft 490 kts 328°
2026-05-06 00:04 55.84472 -11.52749 43152 ft 490 kts 328°
2026-05-06 00:04 55.90291 -11.58964 43161 ft 490 kts 328°
2026-05-06 00:05 55.99065 -11.68378 43161 ft 490 kts 328°
2026-05-06 00:06 56.04872 -11.74635 43159 ft 489 kts 327°
2026-05-06 00:06 56.10720 -11.80961 43163 ft 489 kts 327°
2026-05-06 00:07 56.16532 -11.87269 43156 ft 489 kts 327°
2026-05-06 00:07 56.21370 -11.92538 43156 ft 489 kts 327°
2026-05-06 00:08 56.27187 -11.98893 43158 ft 488 kts 327°
2026-05-06 00:08 56.34056 -12.05922 43152 ft 488 kts 329°
2026-05-06 00:09 56.39013 -12.10982 43157 ft 488 kts 329°
2026-05-06 00:09 56.44895 -12.16971 43155 ft 488 kts 329°
2026-05-06 00:10 56.50828 -12.23049 43155 ft 488 kts 329°
2026-05-06 00:10 56.56713 -12.29093 43153 ft 488 kts 329°
2026-05-06 00:11 56.62600 -12.35164 43153 ft 488 kts 329°
2026-05-06 00:11 56.68511 -12.41280 43153 ft 488 kts 329°
2026-05-06 00:12 56.74419 -12.47416 43152 ft 488 kts 329°
2026-05-06 00:12 56.80322 -12.53569 43148 ft 488 kts 329°
2026-05-06 00:13 56.86216 -12.59736 43148 ft 488 kts 329°
2026-05-06 00:13 56.92067 -12.65879 43149 ft 487 kts 329°
2026-05-06 00:14 56.97950 -12.72079 43149 ft 487 kts 328°
2026-05-06 00:14 57.03820 -12.78288 43145 ft 486 kts 328°
2026-05-06 00:15 57.09666 -12.84495 43143 ft 486 kts 328°
2026-05-06 00:15 57.15526 -12.90740 43145 ft 485 kts 328°
2026-05-06 00:16 57.21352 -12.96970 43143 ft 485 kts 328°
2026-05-06 00:16 57.27202 -13.03250 43141 ft 485 kts 328°
2026-05-06 00:17 57.32995 -13.09492 43142 ft 484 kts 328°
2026-05-06 00:17 57.38831 -13.15804 43137 ft 484 kts 328°
2026-05-06 00:18 57.44621 -13.22089 43138 ft 484 kts 328°
2026-05-06 00:18 57.50439 -13.28428 43134 ft 484 kts 328°
2026-05-06 00:19 57.56255 -13.34788 43136 ft 484 kts 328°
2026-05-06 00:19 57.62068 -13.41169 43133 ft 484 kts 328°
2026-05-06 00:20 57.67842 -13.47530 43132 ft 485 kts 328°
2026-05-06 00:20 57.73657 -13.53962 43127 ft 485 kts 328°
2026-05-06 00:21 57.79474 -13.60420 43129 ft 485 kts 328°
2026-05-06 00:21 57.85248 -13.66854 43133 ft 485 kts 327°
2026-05-06 00:22 57.91068 -13.73364 43130 ft 485 kts 327°
2026-05-06 00:22 57.96849 -13.79855 43128 ft 485 kts 327°
2026-05-06 00:23 58.02616 -13.86355 43129 ft 485 kts 327°
2026-05-06 00:23 58.08422 -13.92925 43131 ft 485 kts 327°
2026-05-06 00:24 58.14226 -13.99517 43122 ft 487 kts 327°
2026-05-06 00:24 58.20056 -14.06164 43130 ft 491 kts 327°
2026-05-06 00:25 58.25908 -14.12862 43129 ft 495 kts 327°
2026-05-06 00:25 58.31828 -14.19664 43129 ft 497 kts 327°
2026-05-06 00:26 58.37721 -14.26464 43133 ft 498 kts 327°
2026-05-06 00:26 58.43669 -14.33352 43132 ft 500 kts 327°
2026-05-06 00:27 58.49633 -14.40288 43138 ft 500 kts 327°
2026-05-06 00:27 58.55550 -14.47196 43140 ft 501 kts 327°
2026-05-06 00:28 58.61479 -14.54147 43137 ft 501 kts 327°
2026-05-06 00:28 58.67444 -14.61167 43140 ft 501 kts 327°
2026-05-06 00:29 58.73358 -14.68157 43139 ft 501 kts 327°
2026-05-06 00:29 58.79301 -14.75209 43138 ft 501 kts 327°
2026-05-06 00:30 58.85248 -14.82294 43139 ft 501 kts 327°
2026-05-06 00:30 58.91158 -14.89364 43140 ft 501 kts 327°
2026-05-06 00:31 58.97056 -14.96448 43132 ft 501 kts 326°
2026-05-06 00:31 59.03094 -15.03203 43127 ft 500 kts 330°
2026-05-06 00:32 59.09253 -15.09462 43124 ft 496 kts 330°
2026-05-06 00:32 59.15283 -15.15723 43120 ft 492 kts 330°
2026-05-06 00:33 59.21325 -15.21952 43124 ft 488 kts 330°
2026-05-06 00:33 59.27282 -15.28158 43118 ft 485 kts 330°
2026-05-06 00:34 59.33253 -15.34382 43120 ft 483 kts 330°
2026-05-06 00:34 59.39182 -15.40600 43120 ft 482 kts 330°
2026-05-06 00:35 59.45069 -15.46789 43123 ft 482 kts 330°
2026-05-06 00:35 59.50976 -15.53030 43128 ft 482 kts 330°
2026-05-06 00:36 59.56892 -15.59302 43131 ft 484 kts 329°
2026-05-06 00:36 59.62846 -15.65642 43139 ft 487 kts 329°
2026-05-06 00:37 59.68843 -15.72053 43131 ft 491 kts 329°
2026-05-06 00:37 59.74837 -15.78487 43128 ft 494 kts 329°
2026-05-06 00:38 59.80905 -15.85028 43136 ft 495 kts 329°
2026-05-06 00:38 59.86939 -15.91559 43131 ft 496 kts 329°
2026-05-06 00:39 59.93013 -15.98161 43131 ft 497 kts 329°
2026-05-06 00:39 59.99091 -16.04795 43129 ft 496 kts 329°
2026-05-06 00:40 60.05113 -16.11396 43130 ft 496 kts 329°
2026-05-06 00:40 60.11176 -16.18070 43129 ft 495 kts 329°
2026-05-06 00:41 60.17179 -16.24705 43119 ft 494 kts 329°
2026-05-06 00:41 60.23196 -16.31385 43130 ft 493 kts 329°
2026-05-06 00:42 60.29218 -16.38098 43125 ft 492 kts 329°
2026-05-06 00:42 60.35177 -16.44769 43126 ft 492 kts 329°
2026-05-06 00:43 60.41167 -16.51504 43120 ft 492 kts 329°
2026-05-06 00:43 60.47129 -16.58235 43128 ft 491 kts 329°
2026-05-06 00:44 60.53106 -16.65012 43127 ft 491 kts 329°
2026-05-06 00:44 60.59077 -16.71811 43117 ft 491 kts 329°
2026-05-06 00:45 60.65015 -16.78601 43124 ft 491 kts 329°
2026-05-06 00:45 60.70981 -16.85453 43120 ft 492 kts 328°
2026-05-06 00:46 60.76914 -16.92296 43118 ft 492 kts 328°
2026-05-06 00:46 60.82879 -16.99205 43117 ft 492 kts 328°
2026-05-06 00:47 60.88837 -17.06136 43121 ft 492 kts 328°
2026-05-06 00:47 60.94785 -17.13087 43117 ft 492 kts 328°
2026-05-06 00:48 61.00750 -17.20086 43109 ft 492 kts 328°
2026-05-06 00:48 61.06681 -17.27077 43107 ft 492 kts 328°
2026-05-06 00:49 61.12637 -17.34127 43105 ft 492 kts 328°
2026-05-06 00:49 61.18587 -17.41202 43101 ft 492 kts 328°
2026-05-06 00:50 61.24521 -17.48290 43101 ft 491 kts 328°
2026-05-06 00:50 61.30405 -17.55347 43099 ft 491 kts 328°
2026-05-06 00:51 61.36329 -17.62484 43098 ft 490 kts 328°
2026-05-06 00:51 61.42230 -17.69625 43092 ft 490 kts 328°
2026-05-06 00:52 61.48087 -17.76743 43090 ft 489 kts 328°
2026-05-06 00:52 61.53977 -17.83934 43084 ft 489 kts 328°
2026-05-06 00:53 61.59849 -17.91134 43087 ft 488 kts 328°
2026-05-06 00:53 61.65691 -17.98329 43082 ft 489 kts 328°
2026-05-06 00:54 61.71569 -18.05602 43086 ft 488 kts 328°
2026-05-06 00:54 61.77410 -18.12860 43085 ft 489 kts 328°
2026-05-06 00:55 61.83271 -18.20176 43085 ft 489 kts 328°
2026-05-06 00:55 61.88143 -18.26283 43084 ft 489 kts 328°
2026-05-06 00:56 61.93997 -18.33649 43080 ft 489 kts 328°
2026-05-06 00:56 61.99819 -18.41009 43078 ft 489 kts 328°
2026-05-06 00:57 62.05671 -18.48442 43079 ft 488 kts 328°
2026-05-06 00:57 62.11482 -18.55855 43081 ft 488 kts 328°
2026-05-06 00:58 62.17330 -18.63349 43088 ft 488 kts 328°
2026-05-06 00:58 62.23130 -18.70815 43087 ft 488 kts 328°
2026-05-06 00:59 62.28965 -18.78361 43083 ft 489 kts 327°
2026-05-06 00:59 62.34792 -18.85930 43093 ft 489 kts 327°
2026-05-06 01:00 62.40595 -18.93505 43093 ft 489 kts 327°
2026-05-06 01:00 62.46417 -19.01137 43087 ft 490 kts 327°
2026-05-06 01:01 62.52210 -19.08767 42996 ft 489 kts 327°
2026-05-06 01:01 62.55139 -19.12639 42279 ft 495 kts 327°
2026-05-06 01:01 62.58096 -19.16558 41630 ft 499 kts 327°
2026-05-06 01:01 62.61080 -19.20520 40974 ft 502 kts 327°
2026-05-06 01:02 62.64025 -19.24439 40321 ft 501 kts 327°
2026-05-06 01:02 62.67004 -19.28413 39664 ft 500 kts 327°
2026-05-06 01:02 62.69964 -19.32373 39007 ft 499 kts 327°
2026-05-06 01:02 62.72929 -19.36349 38274 ft 498 kts 327°
2026-05-06 01:03 62.75837 -19.40255 37649 ft 496 kts 327°
2026-05-06 01:03 62.78766 -19.44200 36999 ft 494 kts 327°
2026-05-06 01:03 62.81695 -19.48156 36351 ft 492 kts 327°
2026-05-06 01:03 62.84614 -19.52107 35704 ft 491 kts 327°
2026-05-06 01:04 62.87521 -19.56050 35059 ft 491 kts 327°
2026-05-06 01:04 62.90402 -19.59968 34421 ft 490 kts 327°
2026-05-06 01:04 62.93294 -19.63909 33766 ft 488 kts 326°
2026-05-06 01:04 62.96177 -19.67846 33121 ft 485 kts 326°
2026-05-06 01:05 62.99042 -19.71770 32483 ft 482 kts 326°
2026-05-06 01:05 63.01893 -19.75685 31843 ft 480 kts 326°
2026-05-06 01:05 63.04696 -19.79542 31223 ft 480 kts 326°
2026-05-06 01:05 63.07528 -19.83448 30596 ft 480 kts 326°
2026-05-06 01:06 63.10359 -19.87359 29916 ft 479 kts 326°
2026-05-06 01:06 63.13186 -19.91275 29282 ft 476 kts 326°
2026-05-06 01:06 63.15993 -19.95173 28655 ft 473 kts 326°
2026-05-06 01:06 63.18741 -19.98998 28040 ft 469 kts 326°
2026-05-06 01:07 63.21497 -20.02844 27421 ft 466 kts 326°
2026-05-06 01:07 63.24234 -20.06668 26817 ft 462 kts 326°
2026-05-06 01:07 63.26945 -20.10468 26212 ft 458 kts 326°
2026-05-06 01:07 63.29628 -20.14237 25615 ft 454 kts 325°
2026-05-06 01:08 63.32293 -20.17988 25020 ft 450 kts 326°
2026-05-06 01:08 63.34918 -20.21691 24445 ft 446 kts 326°
2026-05-06 01:08 63.37503 -20.25348 23861 ft 446 kts 326°
2026-05-06 01:08 63.40113 -20.29139 23202 ft 446 kts 323°
2026-05-06 01:09 63.42524 -20.33502 22637 ft 443 kts 319°
2026-05-06 01:09 63.44882 -20.37954 22051 ft 442 kts 318°
2026-05-06 01:09 63.47217 -20.42304 21479 ft 441 kts 319°
2026-05-06 01:09 63.49589 -20.46662 20902 ft 440 kts 319°
2026-05-06 01:10 63.51954 -20.51048 20321 ft 439 kts 319°
2026-05-06 01:10 63.54248 -20.55564 19711 ft 437 kts 314°
2026-05-06 01:10 63.55953 -20.61143 19132 ft 433 kts 295°
2026-05-06 01:10 63.56937 -20.67492 18603 ft 428 kts 284°
2026-05-06 01:11 63.57708 -20.73949 18015 ft 426 kts 283°
2026-05-06 01:11 63.58465 -20.80369 17446 ft 424 kts 284°
2026-05-06 01:11 63.59244 -20.86674 16893 ft 422 kts 284°
2026-05-06 01:11 63.60032 -20.93009 16334 ft 420 kts 284°
2026-05-06 01:12 63.60796 -20.99358 15774 ft 419 kts 284°
2026-05-06 01:12 63.61547 -21.05690 15225 ft 417 kts 284°
2026-05-06 01:12 63.62301 -21.11975 14680 ft 415 kts 285°
2026-05-06 01:12 63.63056 -21.18238 14133 ft 413 kts 285°
2026-05-06 01:13 63.63789 -21.24399 13563 ft 399 kts 285°
2026-05-06 01:13 63.64474 -21.30224 13054 ft 383 kts 285°
2026-05-06 01:13 63.65145 -21.35924 12560 ft 369 kts 285°
2026-05-06 01:13 63.65797 -21.41451 12076 ft 359 kts 285°
2026-05-06 01:14 63.67042 -21.52105 11157 ft 344 kts 286°
2026-05-06 01:14 63.67636 -21.57222 10714 ft 339 kts 286°
2026-05-06 01:14 63.68218 -21.62254 10276 ft 323 kts 286°
2026-05-06 01:15 63.68752 -21.66897 9849 ft 292 kts 286°
2026-05-06 01:15 63.69258 -21.71286 9457 ft 285 kts 287°
2026-05-06 01:15 63.69752 -21.75567 9097 ft 284 kts 287°
2026-05-06 01:15 63.70249 -21.79904 8547 ft 289 kts 287°
2026-05-06 01:16 63.70752 -21.84318 8105 ft 291 kts 287°
2026-05-06 01:16 63.71255 -21.88744 7725 ft 291 kts 287°
2026-05-06 01:16 63.71754 -21.93151 7340 ft 291 kts 287°
2026-05-06 01:16 63.72252 -21.97552 6958 ft 291 kts 288°
2026-05-06 01:17 63.72748 -22.01961 6562 ft 288 kts 287°
2026-05-06 01:17 63.73238 -22.06332 6178 ft 284 kts 288°
2026-05-06 01:17 63.73716 -22.10599 5805 ft 281 kts 288°
2026-05-06 01:17 63.74193 -22.14869 5438 ft 279 kts 288°
2026-05-06 01:18 63.74664 -22.19103 5083 ft 274 kts 288°
2026-05-06 01:18 63.75120 -22.23224 4712 ft 266 kts 288°
2026-05-06 01:18 63.75563 -22.27237 4375 ft 259 kts 288°
2026-05-06 01:18 63.75992 -22.31108 4042 ft 256 kts 288°
2026-05-06 01:19 63.76420 -22.34998 3713 ft 254 kts 288°
2026-05-06 01:19 63.76887 -22.38837 3440 ft 248 kts 295°
2026-05-06 01:19 63.77476 -22.42322 3462 ft 229 kts 295°
2026-05-06 01:19 63.78004 -22.45692 3451 ft 228 kts 295°
2026-05-06 01:20 63.78541 -22.49048 3339 ft 229 kts 295°
2026-05-06 01:20 63.79097 -22.52466 3164 ft 231 kts 296°
2026-05-06 01:20 63.79658 -22.55906 2973 ft 233 kts 296°
2026-05-06 01:20 63.80523 -22.58844 2680 ft 218 kts 327°
2026-05-06 01:21 63.81811 -22.60348 2489 ft 200 kts 353°
2026-05-06 01:21 63.83128 -22.60534 2513 ft 183 kts
2026-05-06 01:21 63.84369 -22.60541 2508 ft 177 kts
2026-05-06 01:21 63.85581 -22.60547 2482 ft 169 kts
2026-05-06 01:22 63.86705 -22.60560 2253 ft 156 kts
2026-05-06 01:22 63.87775 -22.60562 2036 ft 154 kts
2026-05-06 01:22 63.88836 -22.60563 1837 ft 149 kts
2026-05-06 01:22 63.89830 -22.60562 1621 ft 138 kts
2026-05-06 01:23 63.90772 -22.60556 1433 ft 133 kts
2026-05-06 01:23 63.91678 -22.60558 1235 ft 127 kts
2026-05-06 01:23 63.92529 -22.60554 1039 ft 118 kts
2026-05-06 01:23 63.93343 -22.60550 850 ft 116 kts
2026-05-06 01:24 63.94142 -22.60547 676 ft 112 kts
2026-05-06 01:24 63.94907 -22.60539 531 ft 108 kts
2026-05-06 01:24 63.95647 -22.60550 371 ft 105 kts
2026-05-06 01:24 63.96375 -22.60550 210 ft 106 kts
2026-05-06 01:25 63.97074 -22.60542 148 ft 88 kts
2026-05-06 01:25 63.97485 -22.60545 153 ft 42 kts
2026-05-06 01:25 63.97740 -22.60544 155 ft 33 kts
2026-05-06 01:25 63.97943 -22.60542 155 ft 26 kts
2026-05-06 01:26 63.98101 -22.60540 157 ft 20 kts 359°
2026-05-06 01:26 63.98225 -22.60544 160 ft 16 kts 360°
2026-05-06 01:26 63.98353 -22.60545 161 ft 20 kts 359°
2026-05-06 01:26 63.98472 -22.60544 162 ft 13 kts
2026-05-06 01:27 63.98503 -22.60433 163 ft 11 kts 89°
2026-05-06 01:27 63.98502 -22.60218 164 ft 17 kts 91°
2026-05-06 01:27 63.98502 -22.59914 167 ft 22 kts 90°
2026-05-06 01:27 63.98500 -22.59562 170 ft 20 kts 91°
2026-05-06 01:28 63.98484 -22.59309 171 ft 12 kts 132°
2026-05-06 01:28 63.98414 -22.59229 173 ft 11 kts 158°
2026-05-06 01:28 63.98316 -22.59133 172 ft 18 kts 157°
2026-05-06 01:28 63.98200 -22.59021 171 ft 18 kts 152°
2026-05-06 01:29 63.98125 -22.58801 170 ft 18 kts 105°
2026-05-06 01:29 63.98120 -22.58588 170 ft 1 kts 91°